Location: Orangeville
(43.9200°N, 80.0943°W)
Time: 09:21:29
(UTC-05:00)

ISS - Pass Details

Date: 05 December 2021
Orbit: 413 x 422 km, 51.6° (Epoch: 24 January)

Event Time Altitude Azimuth Distance (km) Brightness Sun altitude
Rises 18:53:20 0° 297° (WNW) 2,380 0.9 -22.7°
Reaches altitude 10° 18:55:31 10° 289° (WNW) 1,510 -0.1 -23.1°
Enters shadow 18:58:37 38° 224° (SW) 656 -2.5 -23.7°
